This demonstration page uses our WeatherBlox Daily Observations layout. Learn more.

Left ArrowRight Arrow

40.92945, -100.16068

Hourly Observations for February 4, 2016

Temp ( °F °C ) Dew Point ( °F °C ) Humidity (%) Winds ( mph kmh ) Pressure ( in mb ) Visibility ( mi km ) Precip ( " mm )
12:15 am 00:15 Clear 6 -14.5 2 -16.5 85 85 NW 7 11 30.45 1031 10 16.0934 N/A
12:35 am 00:35 Clear 5 -15.1 1 -17.4 83 83 WNW 6 9 30.48 1032 10 16.0934 N/A
12:55 am 00:55 Clear 5 -15.2 1 -17.4 83 83 NW 8 13 30.45 1031 10 16.0934 N/A
1:15 am 01:15 Clear 6 -14.2 3 -16.1 86 86 WNW 12 19 30.42 1030 10 16.0934 N/A
1:35 am 01:35 Clear 9 -12.8 5 -15.1 83 83 WNW 8 13 30.42 1030 10 16.0934 N/A
1:55 am 01:55 Clear 7 -13.8 3 -16.1 83 83 WNW 9 15 30.42 1030 10 16.0934 N/A
2:15 am 02:15 Clear 7 -14.1 2 -16.5 82 82 WNW 8 13 30.42 1030 10 16.0934 N/A
2:35 am 02:35 Clear 7 -13.9 3 -16.2 83 83 WNW 8 13 30.42 1030 10 16.0934 N/A
2:55 am 02:55 Clear 6 -14.3 2 -16.7 82 82 WNW 7 11 30.42 1030 10 16.0934 N/A
3:15 am 03:15 Clear 7 -14 2 -16.5 82 82 WNW 9 15 30.42 1030 10 16.0934 N/A
3:35 am 03:35 Clear 7 -14 2 -16.5 82 82 WNW 10 17 30.42 1030 10 16.0934 N/A
3:55 am 03:55 Clear 7 -14 2 -16.6 81 81 WNW 8 13 30.42 1030 10 16.0934 N/A
4:15 am 04:15 Clear 6 -14.3 1 -17 80 80 WNW 6 9 30.39 1029 10 16.0934 N/A
4:35 am 04:35 Clear 5 -15 N/A 79 79 WNW 6 9 30.39 1029 10 16.0934 N/A
4:55 am 04:55 Clear 3 -16 -2 -18.7 80 80 WNW 5 7 30.42 1030 10 16.0934 N/A
5:15 am 05:15 Clear 4 -15.6 -1 -18.1 81 81 WNW 7 11 30.42 1030 10 16.0934 N/A
5:35 am 05:35 Clear 4 -15.7 -1 -18.4 80 80 WNW 6 9 30.42 1030 10 16.0934 N/A
5:55 am 05:55 Clear 4 -15.6 -1 -18.5 79 79 WNW 9 15 30.42 1030 10 16.0934 N/A
6:15 am 06:15 Clear 4 -15.4 -1 -18.1 80 80 WNW 8 13 30.39 1029 10 16.0934 N/A
6:35 am 06:35 Clear 4 -15.8 -2 -18.7 79 79 WNW 9 15 30.42 1030 10 16.0934 N/A
6:55 am 06:55 Clear 4 -15.5 -1 -18.5 78 78 WNW 8 13 30.39 1029 10 16.0934 N/A
7:15 am 07:15 Clear 5 -15.2 -1 -18.2 78 78 WNW 12 19 30.39 1029 10 16.0934 N/A
7:35 am 07:35 Clear 4 -15.4 -1 -18.5 77 77 WNW 10 17 30.39 1029 10 16.0934 N/A
7:55 am 07:55 Sunny 6 -14.5 N/A 78 78 WNW 9 15 30.42 1030 10 16.0934 N/A
8:15 am 08:15 Sunny 7 -14 1 -17.2 77 77 WNW 12 19 30.42 1030 10 16.0934 N/A
8:35 am 08:35 Sunny 7 -13.7 1 -17.1 76 76 W 14 22 30.42 1030 10 16.0934 N/A
8:55 am 08:55 Sunny 9 -13 2 -16.6 75 75 WNW 10 17 30.42 1030 10 16.0934 N/A
9:15 am 09:15 Sunny 9 -12.6 2 -16.5 73 73 WNW 10 17 30.42 1030 10 16.0934 N/A
9:35 am 09:35 Sunny 12 -11 5 -15.2 71 71 WNW 13 20 30.42 1030 10 16.0934 N/A
9:55 am 09:55 Sunny 12 -10.9 5 -15 72 72 WNW 14 22 30.42 1030 10 16.0934 N/A
10:15 am 10:15 Sunny 15 -9.5 7 -14 70 70 WNW 9 15 30.39 1029 10 16.0934 N/A
10:35 am 10:35 Sunny 16 -8.7 8 -13.5 69 69 WNW 10 17 30.39 1029 10 16.0934 N/A
10:55 am 10:55 Sunny 18 -8 9 -13 68 68 WNW 12 19 30.42 1030 10 16.0934 N/A
11:15 am 11:15 Sunny 19 -7.1 10 -12.3 67 67 WNW 13 20 30.42 1030 10 16.0934 N/A
11:35 am 11:35 Sunny 21 -6.1 11 -11.7 65 65 WNW 17 28 30.39 1029 10 16.0934 N/A
11:55 am 11:55 Sunny 22 -5.5 11 -11.4 64 64 WNW 16 26 30.39 1029 10 16.0934 N/A
12:15 pm 12:15 Sunny 23 -4.9 12 -11.1 62 62 WNW 16 26 30.39 1029 10 16.0934 N/A
12:35 pm 12:35 Sunny 24 -4.5 13 -10.8 62 62 WNW 16 26 30.36 1028 10 16.0934 N/A
12:55 pm 12:55 Sunny 24 -4.4 13 -10.6 62 62 WNW 14 22 30.36 1028 10 16.0934 N/A
1:15 pm 13:15 Sunny 25 -3.7 14 -9.8 63 63 WNW 13 20 30.36 1028 10 16.0934 N/A
1:35 pm 13:35 Sunny 26 -3.5 15 -9.4 64 64 WNW 13 20 30.33 1027 10 16.0934 N/A
1:55 pm 13:55 Sunny 27 -3 15 -9.3 62 62 WNW 9 15 30.33 1027 10 16.0934 N/A
2:15 pm 14:15 Sunny 28 -2.4 16 -8.9 61 61 WNW 8 13 30.3 1026 10 16.0934 N/A
2:35 pm 14:35 Sunny 27 -2.7 15 -9.2 61 61 WNW 9 15 30.33 1027 10 16.0934 N/A
2:55 pm 14:55 Sunny 28 -2.5 17 -8.6 63 63 WNW 8 13 30.33 1027 10 16.0934 N/A
3:15 pm 15:15 Sunny 28 -2.3 17 -8.4 63 63 WNW 7 11 30.33 1027 10 16.0934 N/A
3:35 pm 15:35 Sunny 28 -2.2 17 -8.5 62 62 WNW 7 11 30.33 1027 10 16.0934 N/A
3:55 pm 15:55 Sunny 28 -2 17 -8.5 61 61 W 6 9 30.33 1027 10 16.0934 N/A
4:15 pm 16:15 Sunny 28 -2 17 -8.1 63 63 N N/A 30.33 1027 10 16.0934 N/A
4:35 pm 16:35 Sunny 28 -2 17 -8.4 62 62 N N/A 30.33 1027 10 16.0934 N/A
4:55 pm 16:55 Sunny 28 -2 17 -8.5 61 61 N N/A 30.33 1027 10 16.0934 N/A
5:15 pm 17:15 Sunny 28 -2.5 17 -8.1 66 66 N N/A 30.36 1028 10 16.0934 N/A
5:35 pm 17:35 Sunny 26 -3.2 16 -8.7 66 66 N N/A 30.36 1028 10 16.0934 N/A
5:55 pm 17:55 Sunny 25 -3.8 17 -8.6 70 70 N N/A 30.39 1029 10 16.0934 N/A
6:15 pm 18:15 Clear 23 -5.1 17 -8.4 78 78 N N/A 30.39 1029 10 16.0934 N/A
6:35 pm 18:35 Clear 23 -5.2 16 -8.9 76 76 SSE 3 6 30.39 1029 10 16.0934 N/A
6:55 pm 18:55 Clear 22 -5.5 16 -8.9 77 77 SSE 3 6 30.39 1029 10 16.0934 N/A
7:15 pm 19:15 Clear 22 -5.7 14 -9.8 73 73 S 5 7 30.39 1029 10 16.0934 N/A
7:35 pm 19:35 Clear 22 -5.3 16 -9.1 75 75 S 3 6 30.39 1029 10 16.0934 N/A
7:55 pm 19:55 Clear 22 -5.5 15 -9.3 75 75 SSE 6 9 30.39 1029 10 16.0934 N/A
8:15 pm 20:15 Clear 21 -5.9 15 -9.5 76 76 S 7 11 30.39 1029 10 16.0934 N/A
8:35 pm 20:35 Clear 20 -6.5 15 -9.7 78 78 SSW 7 11 30.39 1029 10 16.0934 N/A
8:55 pm 20:55 Clear 20 -6.8 14 -9.8 79 79 S 5 7 30.42 1030 10 16.0934 N/A
9:15 pm 21:15 Clear 21 -6.1 16 -8.9 81 81 SSW 7 11 30.39 1029 10 16.0934 N/A
9:35 pm 21:35 Clear 20 -6.8 15 -9.7 80 80 SSW 6 9 30.42 1030 10 16.0934 N/A
9:55 pm 21:55 Clear 19 -7.5 13 -10.5 79 79 S 8 13 30.42 1030 10 16.0934 N/A
10:15 pm 22:15 Clear 20 -6.8 16 -9.1 84 84 SW 6 9 30.42 1030 10 16.0934 N/A
10:35 pm 22:35 Clear 19 -7 15 -9.5 83 83 SSW 6 9 30.42 1030 10 16.0934 N/A
10:55 pm 22:55 Partly Cloudy 20 -6.8 15 -9.4 82 82 SSW 6 9 30.42 1030 10 16.0934 N/A
11:15 pm 23:15 Partly Cloudy 19 -7 15 -9.3 84 84 SSW 5 7 30.42 1030 10 16.0934 N/A
11:35 pm 23:35 Partly Cloudy 20 -6.5 16 -8.9 83 83 N N/A 30.39 1029 10 16.0934 N/A
11:55 pm 23:55 Clear 20 -6.6 16 -9.1 83 83 N N/A 30.45 1031 10 16.0934 N/A

Powered by AerisWeather